TimeEST,TemperatureF,Dew PointF,Humidity,Sea Level PressureIn,VisibilityMPH,Wind Direction,Wind SpeedMPH,Gust SpeedMPH,PrecipitationIn,Events,Conditions,WindDirDegrees,DateUTC
12:15 AM,32.0,26.6,80,29.96,7.0,West,8.1,18.4,N/A,,Overcast,260,2012-12-22 05:15:00
12:35 AM,32.0,26.6,80,29.97,10.0,WSW,9.2,-,N/A,,Mostly Cloudy,250,2012-12-22 05:35:00
12:55 AM,32.0,26.6,80,29.97,10.0,West,5.8,-,N/A,,Mostly Cloudy,270,2012-12-22 05:55:00
1:15 AM,32.0,26.6,80,29.98,10.0,West,8.1,-,N/A,,Mostly Cloudy,260,2012-12-22 06:15:00
1:35 AM,32.0,26.6,80,29.99,10.0,West,9.2,17.3,N/A,,Overcast,260,2012-12-22 06:35:00
1:55 AM,32.0,26.6,80,30.00,10.0,WSW,8.1,-,N/A,,Overcast,250,2012-12-22 06:55:00
2:15 AM,32.0,26.6,80,30.01,10.0,West,6.9,-,N/A,,Overcast,260,2012-12-22 07:15:00
2:35 AM,32.0,24.8,75,30.02,10.0,West,9.2,-,N/A,,Overcast,280,2012-12-22 07:35:00
2:55 AM,32.0,24.8,75,30.03,10.0,West,6.9,-,N/A,,Overcast,270,2012-12-22 07:55:00
3:15 AM,32.0,24.8,75,30.04,10.0,West,8.1,17.3,N/A,,Overcast,260,2012-12-22 08:15:00
3:35 AM,32.0,24.8,75,30.05,10.0,West,5.8,-,N/A,,Overcast,270,2012-12-22 08:35:00
4:15 AM,32.0,24.8,75,30.06,10.0,West,10.4,16.1,N/A,,Overcast,270,2012-12-22 09:15:00
4:35 AM,32.0,24.8,75,30.07,10.0,West,8.1,16.1,N/A,,Overcast,270,2012-12-22 09:35:00
4:55 AM,32.0,24.8,75,30.07,10.0,WSW,6.9,18.4,N/A,,Overcast,240,2012-12-22 09:55:00
5:15 AM,32.0,24.8,75,30.08,10.0,West,6.9,-,N/A,,Overcast,270,2012-12-22 10:15:00
5:35 AM,32.0,24.8,75,30.09,10.0,West,8.1,-,N/A,,Overcast,270,2012-12-22 10:35:00
5:55 AM,32.0,24.8,75,30.10,10.0,West,6.9,-,N/A,,Overcast,270,2012-12-22 10:55:00
6:15 AM,32.0,23.0,69,30.11,10.0,West,4.6,-,N/A,,Overcast,280,2012-12-22 11:15:00
6:35 AM,32.0,24.8,75,30.12,10.0,West,5.8,-,N/A,,Overcast,270,2012-12-22 11:35:00
7:15 AM,32.0,24.8,75,30.14,10.0,WSW,8.1,-,N/A,,Overcast,250,2012-12-22 12:15:00
7:35 AM,30.2,23.0,75,30.16,10.0,WSW,9.2,-,N/A,,Overcast,250,2012-12-22 12:35:00
7:55 AM,30.2,23.0,75,30.16,10.0,WSW,8.1,17.3,N/A,,Overcast,250,2012-12-22 12:55:00
8:15 AM,30.2,23.0,75,30.16,10.0,WSW,9.2,19.6,N/A,,Overcast,250,2012-12-22 13:15:00
8:35 AM,30.2,24.8,80,30.17,10.0,WSW,10.4,-,N/A,,Overcast,250,2012-12-22 13:35:00
8:55 AM,30.2,24.8,80,30.18,10.0,WSW,10.4,-,N/A,,Overcast,240,2012-12-22 13:55:00
9:15 AM,30.2,23.0,75,30.19,10.0,WSW,8.1,-,N/A,,Overcast,240,2012-12-22 14:15:00
9:35 AM,30.2,23.0,75,30.19,10.0,WSW,10.4,-,N/A,,Overcast,240,2012-12-22 14:35:00
9:55 AM,30.2,23.0,75,30.21,10.0,West,9.2,18.4,N/A,,Overcast,260,2012-12-22 14:55:00
10:15 AM,32.0,23.0,69,30.21,10.0,WSW,8.1,-,N/A,,Overcast,250,2012-12-22 15:15:00
10:35 AM,32.0,23.0,69,30.22,10.0,WSW,9.2,-,N/A,,Overcast,250,2012-12-22 15:35:00
10:55 AM,32.0,23.0,69,30.22,10.0,WSW,9.2,17.3,N/A,,Mostly Cloudy,250,2012-12-22 15:55:00
11:15 AM,32.0,23.0,69,30.22,10.0,West,8.1,-,N/A,,Mostly Cloudy,260,2012-12-22 16:15:00
11:35 AM,32.0,23.0,69,30.22,10.0,WSW,6.9,17.3,N/A,,Mostly Cloudy,250,2012-12-22 16:35:00
11:55 AM,32.0,23.0,69,30.21,10.0,WSW,13.8,19.6,N/A,,Mostly Cloudy,250,2012-12-22 16:55:00
12:15 PM,32.0,23.0,69,30.21,10.0,WSW,9.2,-,N/A,,Overcast,250,2012-12-22 17:15:00
12:35 PM,32.0,23.0,69,30.19,10.0,West,8.1,-,N/A,,Overcast,260,2012-12-22 17:35:00
12:55 PM,32.0,23.0,69,30.19,10.0,WSW,11.5,18.4,N/A,,Overcast,250,2012-12-22 17:55:00
1:15 PM,32.0,23.0,69,30.19,10.0,WSW,8.1,-,N/A,,Overcast,250,2012-12-22 18:15:00
1:35 PM,32.0,23.0,69,30.18,10.0,West,6.9,-,N/A,,Overcast,260,2012-12-22 18:35:00
1:55 PM,32.0,23.0,69,30.18,10.0,WSW,9.2,-,N/A,,Overcast,250,2012-12-22 18:55:00
2:15 PM,32.0,23.0,69,30.18,10.0,WSW,11.5,16.1,N/A,,Mostly Cloudy,240,2012-12-22 19:15:00
2:35 PM,32.0,23.0,69,30.18,10.0,WSW,9.2,17.3,N/A,,Overcast,250,2012-12-22 19:35:00
2:55 PM,32.0,21.2,64,30.19,10.0,WSW,8.1,-,N/A,,Overcast,250,2012-12-22 19:55:00
3:15 PM,32.0,23.0,69,30.19,10.0,WSW,6.9,-,N/A,,Overcast,250,2012-12-22 20:15:00
3:35 PM,32.0,23.0,69,30.19,10.0,West,8.1,-,N/A,,Overcast,260,2012-12-22 20:35:00
3:55 PM,32.0,23.0,69,30.19,10.0,WSW,9.2,-,N/A,,Overcast,240,2012-12-22 20:55:00
4:15 PM,32.0,23.0,69,30.19,10.0,WSW,6.9,-,N/A,,Mostly Cloudy,250,2012-12-22 21:15:00
4:35 PM,32.0,21.2,64,30.19,10.0,WSW,5.8,-,N/A,,Clear,240,2012-12-22 21:35:00
4:55 PM,30.2,21.2,69,30.19,10.0,WSW,6.9,-,N/A,,Clear,240,2012-12-22 21:55:00
5:15 PM,28.4,21.2,74,30.19,10.0,Calm,Calm,-,N/A,,Clear,0,2012-12-22 22:15:00
5:35 PM,28.4,21.2,74,30.18,10.0,Calm,Calm,-,N/A,,Clear,0,2012-12-22 22:35:00
5:55 PM,28.4,23.0,80,30.18,10.0,Calm,Calm,-,N/A,,Clear,0,2012-12-22 22:55:00
6:15 PM,26.6,23.0,86,30.18,10.0,Calm,Calm,-,N/A,,Clear,0,2012-12-22 23:15:00
6:35 PM,26.6,23.0,86,30.18,10.0,Calm,Calm,-,N/A,,Clear,0,2012-12-22 23:35:00
6:55 PM,26.6,23.0,86,30.18,10.0,Calm,Calm,-,N/A,,Clear,0,2012-12-22 23:55:00
7:15 PM,24.8,21.2,86,30.18,10.0,Calm,Calm,-,N/A,,Clear,0,2012-12-23 00:15:00
7:35 PM,24.8,21.2,86,30.18,10.0,Calm,Calm,-,N/A,,Clear,0,2012-12-23 00:35:00
7:55 PM,23.0,21.2,93,30.18,10.0,Calm,Calm,-,N/A,,Clear,0,2012-12-23 00:55:00
8:15 PM,23.0,21.2,93,30.18,10.0,Calm,Calm,-,N/A,,Clear,0,2012-12-23 01:15:00
8:35 PM,23.0,21.2,93,30.17,10.0,Calm,Calm,-,N/A,,Clear,0,2012-12-23 01:35:00
8:55 PM,23.0,21.2,93,30.18,10.0,Calm,Calm,-,N/A,,Clear,0,2012-12-23 01:55:00
9:15 PM,23.0,21.2,93,30.17,10.0,Calm,Calm,-,N/A,,Clear,0,2012-12-23 02:15:00
9:35 PM,21.2,21.2,100,30.17,10.0,Calm,Calm,-,N/A,,Clear,0,2012-12-23 02:35:00
9:55 PM,21.2,19.4,93,30.16,10.0,Calm,Calm,-,N/A,,Clear,0,2012-12-23 02:55:00
10:15 PM,21.2,19.4,93,30.16,10.0,Calm,Calm,-,N/A,,Clear,0,2012-12-23 03:15:00
10:35 PM,21.2,19.4,93,30.16,10.0,Calm,Calm,-,N/A,,Clear,0,2012-12-23 03:35:00
10:55 PM,21.2,19.4,93,30.15,10.0,Calm,Calm,-,N/A,,Clear,0,2012-12-23 03:55:00
11:15 PM,21.2,19.4,93,30.14,10.0,Calm,Calm,-,N/A,,Clear,0,2012-12-23 04:15:00
11:35 PM,19.4,19.4,100,30.14,10.0,Calm,Calm,-,N/A,,Clear,0,2012-12-23 04:35:00
11:55 PM,19.4,19.4,100,30.14,10.0,Calm,Calm,-,N/A,,Clear,0,2012-12-23 04:55:00